Simultaneous Nadir Overpasses (SNOs) Predictions

Prediction of SNOs between AURA and LANDSAT-8 Satellite Orbit:

Table of predicted SNOs for the next 14.0 days since TLE Epoch: 1/5/2025
Index Date (AURA) Time (AURA) Lat,Lon (AURA) SZA (AURA ) Date (LANDSAT-8) Time (LANDSAT-8) Lat,Lon (LANDSAT-8) SZA (LANDSAT-8 ) Distance(km) Time Diff (sec)
1 01/09/2025 08:06:51 -72.50,-118.98 85.55 01/09/2025 08:05:44 -72.52,-121.24 85.52 75.63 67
2 01/09/2025 08:56:15 72.59, 48.50 94.54 01/09/2025 08:55:08 72.59, 46.53 94.54 65.42 67
3 01/09/2025 09:45:41 -72.91,-144.44 85.15 01/09/2025 09:44:30 -72.90,-145.24 85.16 26.24 71
4 01/09/2025 10:35:05 73.00, 23.02 94.94 01/09/2025 10:33:53 73.02, 22.64 94.96 12.54 72
5 01/09/2025 11:24:27 -73.11,-169.51 84.97 01/09/2025 11:23:19 -73.11,-169.54 84.96 1.16 68
6 01/09/2025 12:13:50 73.15, -1.94 95.08 01/09/2025 12:12:44 73.13, -1.86 95.06 3.45 66
7 01/09/2025 13:03:10 -73.15, 165.73 84.94 01/09/2025 13:02:12 -73.12, 165.75 84.96 3.17 58
8 01/09/2025 13:52:32 73.14, -26.59 95.06 01/09/2025 13:51:37 73.14, -26.57 95.06 0.75 55
9 01/09/2025 14:41:52 -73.13, 141.08 84.96 01/09/2025 14:41:05 -73.12, 141.04 84.97 1.91 47
10 01/09/2025 15:31:14 73.12, -51.24 95.03 01/09/2025 15:30:30 73.14, -51.28 95.05 2.18 44
11 01/09/2025 16:20:35 -73.17, 116.33 84.93 01/09/2025 16:19:57 -73.18, 116.43 84.92 3.42 38
12 01/09/2025 17:09:57 73.16, -76.00 95.06 01/09/2025 17:09:23 73.14, -76.00 95.04 2.24 34
13 01/09/2025 17:59:17 -73.16, 91.68 84.95 01/09/2025 17:58:50 -73.18, 91.72 84.93 2.88 27
14 01/09/2025 18:48:39 73.15,-100.65 95.04 01/09/2025 18:48:16 73.15,-100.71 95.04 1.93 23
15 01/09/2025 19:38:00 -73.20, 66.92 84.92 01/09/2025 19:37:43 -73.19, 67.00 84.93 3.09 17
16 01/09/2025 20:27:22 73.19,-125.41 95.07 01/09/2025 20:27:08 73.21,-125.31 95.09 3.33 14
17 01/09/2025 21:16:42 -73.19, 42.27 84.94 01/09/2025 21:16:36 -73.19, 42.29 84.94 0.85 6
18 01/09/2025 22:06:04 73.18,-150.06 95.05 01/09/2025 22:06:01 73.21,-150.03 95.08 3.43 3
19 01/09/2025 22:55:24 -73.18, 17.62 84.97 01/09/2025 22:55:29 -73.20, 17.58 84.95 2.60 5
20 01/09/2025 23:44:47 73.22,-174.81 95.08 01/09/2025 23:44:54 73.21,-174.74 95.07 2.54 7
21 01/10/2025 00:34:07 -73.22, -7.14 84.94 01/10/2025 00:34:22 -73.20, -7.13 84.95 1.76 15
22 01/10/2025 01:23:29 73.21, 160.53 95.06 01/10/2025 01:23:47 73.22, 160.55 95.07 1.12 18
23 01/10/2025 02:12:49 -73.20, -31.79 84.96 01/10/2025 02:13:15 -73.20, -31.85 84.96 1.85 26
24 01/10/2025 03:02:11 73.20, 135.88 95.04 01/10/2025 03:02:40 73.22, 135.84 95.06 3.23 29
25 01/10/2025 03:51:32 -73.24, -56.55 84.93 01/10/2025 03:52:07 -73.26, -56.45 84.91 3.55 35
26 01/10/2025 04:40:54 73.24, 111.13 95.07 01/10/2025 04:41:33 73.23, 111.12 95.05 1.29 39
27 01/10/2025 05:30:14 -73.23, -81.20 84.95 01/10/2025 05:31:01 -73.21, -81.27 84.97 3.27 47
28 01/10/2025 06:19:36 73.23, 86.47 95.04 01/10/2025 06:20:26 73.23, 86.41 95.05 2.16 50
29 01/10/2025 07:08:57 -73.27,-105.96 84.92 01/10/2025 07:09:53 -73.27,-105.88 84.92 2.56 56
30 01/10/2025 07:58:19 73.27, 61.72 95.08 01/10/2025 07:59:18 73.29, 61.80 95.09 3.58 59
31 01/10/2025 08:47:39 -73.26,-130.61 84.94 01/10/2025 08:48:46 -73.27,-130.59 84.93 1.35 67
32 01/10/2025 09:37:01 73.26, 37.06 95.05 01/10/2025 09:38:12 73.24, 36.98 95.04 3.26 71
33 01/10/2025 10:26:25 -73.46,-155.70 84.75 01/10/2025 10:27:36 -73.43,-154.98 84.78 22.91 71
34 01/10/2025 11:15:50 73.61, 11.64 95.40 01/10/2025 11:16:59 73.56, 12.93 95.34 40.95 69
35 01/10/2025 12:05:15 -73.86, 178.75 84.35 01/10/2025 12:06:21 -73.85,-178.79 84.37 75.99 66
36 01/10/2025 12:54:40 74.02, -13.94 95.81 01/10/2025 12:55:44 73.98, -10.87 95.76 94.08 64



Historial Predications of SNOs between AURA and LANDSAT-8
